Regional Weather Roundup
Issued by NWS Bismarck, ND

Home | Current Version | Previous Version | Graphics & Text | Print | Product List | Glossary On
Versions: 1 2 3 4 5 6 7 8 9 10 11 12 13 14 15 16 17 18 19 20 21 22 23 24 25 26 27 28 29 30 31 32 33 34 35 36 37 38 39 40 41 42 43 44 45 46 47 48 49 50
000
ASUS43 KBIS 070210
RWRBIS

NWR BROADCAST TEXT
NATIONAL WEATHER SERVICE BISMARCK ND
800 PM CST SAT FEB 06 2016

NOTE: "FAIR" INDICATES FEW OR NO CLOUDS BELOW 12,000 FEET WITH NO
SIGNIFICANT WEATHER AND/OR OBSTRUCTIONS TO VISIBILITY.


CITY           SKY/WX    TMP DP  RH WIND       PRES   REMARKS
WILLISTON      PTCLDY    39  26  59 W21       29.78R
MINOT          LGT RAIN  41  32  70 W32G39    29.59R
MINOT AFB      LGT RAIN  38  37  99 W26G41    29.57R
BISMARCK       PTCLDY    47  22  37 W20G29    29.71R
DICKINSON      MOCLDY    37  26  64 W25G36    29.78R
GARRISON         N/A     40  33  76 W35G52    29.65R
HETTINGER ARPT CLEAR     39  24  55 NW33G46   29.85R
JAMESTOWN      MOCLDY    37  32  82 SW12      29.63S
BEACH          FAIR      37  23  56 W28       29.90R
CARRINGTON     MOCLDY    37  36  93 SW12G20   29.60F
HAZEN          CLOUDY    39  32  75 NW29G43   29.73R
LINTON         FAIR      39  27  60 W14G20    29.75S
MANDAN         FAIR      41  23  48 W28       29.70S
OAKES          CLOUDY    34  34 100 SW12      29.70S
RUGBY          CLOUDY    37  32  81 W18       29.51F
STANLEY        CLOUDY    36  36 100 W28G38    29.67R
TIOGA          MOCLDY    36  32  87 W31G41    29.73R
WATFORD CITY   FAIR      37  28  70 W25G38    29.77R
$$

CITY           SKY/WX    TMP DP  RH WIND       PRES   REMARKS
GRAND FORKS    CLOUDY    40  32  73 W15       29.52S
GRAND FORKS AF CLOUDY    40  32  74 W21       29.52R
DEVILS LAKE    NOT AVBL
FARGO          CLOUDY    39  33  79 SW12      29.61F
CAVALIER       FAIR      41  32  70 W18       29.46F
GRAFTON        MOCLDY    37  34  87 W18       29.51F
GWINNER          N/A     36  34  93 SW14      29.69F
LANGDON        FAIR      36  32  87 SW20      29.47F
ROLLA          FAIR      37  32  81 W16       29.45F
WALHALLA       FAIR      41  32  70 W15G25    29.45F
$$

CITY           SKY/WX    TMP DP  RH WIND       PRES   REMARKS
ABERDEEN       MOCLDY    35  30  82 S10       29.72F
MOBRIDGE       CLEAR     42  27  55 W10       29.75S
BUFFALO          N/A     40  22  48 NW32G46   29.85R
RAPID CITY     CLOUDY    40  24  53 NW25G39   29.97R
GLASGOW        MOCLDY    35  29  78 W22G33    29.93R
SIDNEY         CLEAR     39  27  60 W33G41    29.83R
WOLF POINT     CLEAR     37  30  75 W20G30    29.91R
GLENDIVE       CLEAR     37  25  60 W35G44    29.90R
MILES CITY     CLEAR     39  25  57 NW31G41   30.00R
BAKER          CLOUDY    38  22  52 W21G35    29.92R
$$

CITY           SKY/WX    TMP DP  RH WIND       PRES   REMARKS
BILLINGS       CLOUDY    40  13  33 N28G33    30.07R
GREAT FALLS    PTCLDY    32  16  51 W10       30.14R
REGINA         PTCLDY    36  25  64 NW32G45   29.64R
ESTEVAN        PTCLDY    36  28  75 W31G40    29.62R
$$




USA.gov is the U.S. government's official web portal to all federal, state and local government web resources and services.